Regional Weather Roundup
Issued by NWS Cleveland, OH

Home | Current Version | Previous Version | Graphics & Text | Print | Product List | Glossary On
Versions: 1 2 3 4 5 6 7 8 9 10 11 12 13 14 15 16 17 18 19 20 21 22 23 24 25 26 27 28 29 30 31 32 33 34 35 36 37 38 39 40 41 42 43 44 45 46 47 48 49 50
000
ASUS41 KCLE 281100
RWRCLE
OHIO REGIONAL WEATHER ROUNDUP
NATIONAL WEATHER SERVICE WILMINGTON, OH
700 AM EDT WED JUN 28 2017

NOTE: "FAIR" INDICATES FEW OR NO CLOUDS BELOW 12,000 FEET WITH NO
SIGNIFICANT WEATHER AND/OR OBSTRUCTIONS TO VISIBILITY.

OHZ001>008-015>018-024>027-034-035-043-044-281200-
   NORTHWEST OHIO

CITY           SKY/WX    TMP DP  RH WIND       PRES   REMARKS
DEFIANCE       FAIR      50  49  96 CALM      30.12R
FINDLAY        FAIR      54  47  77 S5        30.13R
TOLEDO EXPRESS FAIR      49  49 100 CALM      30.12R
TOLEDO EXEC    FAIR      54  50  86 CALM      30.12R
LIMA           FAIR      55  48  77 S7        30.14R
$$

OHZ009>014-019>023-028>033-038-089-281200-
   NORTHEAST OHIO

CITY           SKY/WX    TMP DP  RH WIND       PRES   REMARKS
CLE-HOPKINS    FAIR      58  47  66 SW6       30.14S
CLE-LAKEFRONT  FAIR      60  46  59 SW8       30.10F
CUY CO. ARPT   SUNNY    N/A N/A N/A SW9       30.12
LORAIN-ELYRIA  FAIR      54  45  71 SW5       30.12F
ASHTABULA      FAIR      54  48  80 S5        30.13R
AKRON-CANTON   FAIR      54  46  74 S5        30.14F
WOOSTER        NOT AVBL
MANSFIELD      FAIR      55  45  68 SW3       30.14S
YOUNGSTOWN     FAIR      54  46  74 SW7       30.14S
$$

OHZ042-051>053-060>062-070>072-077>081-281200-
  SOUTHWEST OHIO

CITY           SKY/WX    TMP DP  RH WIND       PRES   REMARKS
CINC-COVINGTON FAIR      58  50  75 CALM      30.16R
CINC-LUNKEN    FOG       53  53 100 CALM      30.17R VSB 1/2
HAMILTON       FAIR      52  52 100 CALM      30.17R
DAYTON         NOT AVBL
WRIGHT-PAT AFB NOT AVBL
DAYTON GENERAL FAIR      55  48  77 CALM      30.15R
WILMINGTON     FAIR      55  51  86 SE3       30.15R
$$

OHZ036-037-039>041-045>050-054>059-063>069-073>076-082>088-281200-
  CENTRAL AND SOUTHEAST OHIO

CITY           SKY/WX    TMP DP  RH WIND       PRES   REMARKS
COLUMBUS       FAIR      55  51  86 CALM      30.14F
OSU AIRPORT    FAIR      51  50  96 E3        30.14S
BOLTON FIELD   NOT AVBL
RICKENBACK AFB NOT AVBL
NEWARK         FAIR      48  46  93 CALM      30.15F FOG
MARION         FAIR      52  47  83 S5        30.14R
LANCASTER      FAIR      50  49  96 SW3       30.16S
ZANESVILLE     FAIR      49  47  93 CALM      30.15F
NEW PHILLY     FAIR      50  49  96 E3        30.16F
$$




USA.gov is the U.S. government's official web portal to all federal, state and local government web resources and services.